Year,Month,Day,Hour,Minute,Value (Times are PST for temperature in C)
2012,10,19,09,50,10.90
2012,10,19,09,51,10.90
2012,10,19,09,52,10.90
2012,10,19,09,53,10.90
2012,10,19,09,54,10.90
2012,10,19,09,55,10.90
2012,10,19,09,56,10.90
2012,10,19,09,57,10.90
2012,10,19,09,58,10.90
2012,10,19,09,59,10.90
2012,10,19,10,00,10.90
2012,10,19,10,01,10.90
2012,10,19,10,02,10.90
2012,10,19,10,03,10.90
2012,10,19,10,04,10.90
2012,10,19,10,05,10.90
2012,10,19,10,06,10.90
2012,10,19,10,07,10.90
2012,10,19,10,08,10.90
2012,10,19,10,09,10.90
2012,10,19,10,10,10.90
2012,10,19,10,11,10.90
2012,10,19,10,12,10.90
2012,10,19,10,13,10.90
2012,10,19,10,14,10.90
2012,10,19,10,15,10.90
2012,10,19,10,16,10.90
2012,10,19,10,17,10.90
2012,10,19,10,18,10.90
2012,10,19,10,19,10.90
2012,10,19,10,20,10.90
2012,10,19,10,21,10.90
2012,10,19,10,22,10.90
2012,10,19,10,23,10.90
2012,10,19,10,24,10.90
2012,10,19,10,25,10.90
2012,10,19,10,26,10.90
2012,10,19,10,27,10.90
2012,10,19,10,28,10.90
2012,10,19,10,29,10.90
2012,10,19,10,30,10.90
2012,10,19,10,31,10.90
2012,10,19,10,32,10.90
2012,10,19,10,33,10.90
2012,10,19,10,34,10.90
2012,10,19,10,35,10.90
2012,10,19,10,36,10.90
2012,10,19,10,37,10.90
2012,10,19,10,38,10.90
2012,10,19,10,39,10.90
2012,10,19,10,40,10.90
2012,10,19,10,41,10.90
2012,10,19,10,42,10.90
2012,10,19,10,43,10.90
2012,10,19,10,44,10.90
2012,10,19,10,45,11.00
2012,10,19,10,46,11.10
2012,10,19,10,47,11.10
2012,10,19,10,48,11.10
2012,10,19,10,49,11.10
2012,10,19,10,50,11.10
2012,10,19,10,51,11.10
2012,10,19,10,52,11.10
2012,10,19,10,53,11.10
2012,10,19,10,54,11.10
2012,10,19,10,55,11.10
2012,10,19,10,56,11.10
2012,10,19,10,57,11.10
2012,10,19,10,58,11.10
2012,10,19,10,59,11.10
2012,10,19,11,00,11.10
2012,10,19,11,01,11.10
2012,10,19,11,02,11.10
2012,10,19,11,03,11.10
2012,10,19,11,04,11.10
2012,10,19,11,05,11.10
2012,10,19,11,06,11.10
2012,10,19,11,07,11.10
2012,10,19,11,08,11.10
2012,10,19,11,09,11.10
2012,10,19,11,10,11.10
2012,10,19,11,11,11.10
2012,10,19,11,12,11.10
2012,10,19,11,13,11.10
2012,10,19,11,14,11.10
2012,10,19,11,15,11.10
2012,10,19,11,16,11.10
2012,10,19,11,17,11.10
2012,10,19,11,18,11.10
2012,10,19,11,19,11.10
2012,10,19,11,20,11.10
2012,10,19,11,21,11.10
2012,10,19,11,22,11.10
2012,10,19,11,23,11.10
2012,10,19,11,24,11.10
2012,10,19,11,25,11.10
2012,10,19,11,26,11.10
2012,10,19,11,27,11.10
2012,10,19,11,28,11.10
2012,10,19,11,29,11.10
2012,10,19,11,30,11.10
2012,10,19,11,31,11.10
2012,10,19,11,32,11.10
2012,10,19,11,33,11.20
2012,10,19,11,34,11.20
2012,10,19,11,35,11.20
2012,10,19,11,36,11.20
2012,10,19,11,37,11.20
2012,10,19,11,38,11.20
2012,10,19,11,39,11.30
2012,10,19,11,40,11.30
2012,10,19,11,41,11.30
2012,10,19,11,42,11.30
2012,10,19,11,43,11.30
2012,10,19,11,44,11.40
2012,10,19,11,45,11.40
2012,10,19,11,46,11.40
2012,10,19,11,47,11.40
2012,10,19,11,48,11.40
2012,10,19,11,49,11.40
2012,10,19,11,50,11.40
2012,10,19,11,51,11.50
2012,10,19,11,52,11.60
2012,10,19,11,53,11.60
2012,10,19,11,54,11.60
2012,10,19,11,55,11.60
2012,10,19,11,56,11.60
2012,10,19,11,57,11.50
2012,10,19,11,58,11.40
2012,10,19,11,59,11.40
2012,10,19,12,00,11.50
2012,10,19,12,01,11.60
2012,10,19,12,02,11.60
2012,10,19,12,03,11.60
2012,10,19,12,04,11.60
2012,10,19,12,05,11.60
2012,10,19,12,06,11.60
2012,10,19,12,07,11.60
2012,10,19,12,08,11.50
2012,10,19,12,09,11.40
2012,10,19,12,10,11.50
2012,10,19,12,11,11.60
2012,10,19,12,12,11.60
2012,10,19,12,13,11.60
2012,10,19,12,14,11.60
2012,10,19,12,15,11.60
2012,10,19,12,16,11.60
2012,10,19,12,17,11.60
2012,10,19,12,18,11.60
2012,10,19,12,19,11.60
2012,10,19,12,20,11.60
2012,10,19,12,21,11.60
2012,10,19,12,22,11.60
2012,10,19,12,23,11.60
2012,10,19,12,24,11.70
2012,10,19,12,25,11.70
2012,10,19,12,26,11.70
2012,10,19,12,27,11.70
2012,10,19,12,28,11.80
2012,10,19,12,29,11.80
2012,10,19,12,30,11.70
2012,10,19,12,31,11.70
2012,10,19,12,32,11.70
2012,10,19,12,33,11.70
2012,10,19,12,34,11.70
2012,10,19,12,35,11.60
2012,10,19,12,36,11.60
2012,10,19,12,37,11.60
2012,10,19,12,38,11.60
2012,10,19,12,39,11.60
2012,10,19,12,40,11.60
2012,10,19,12,41,11.60
2012,10,19,12,42,11.60
2012,10,19,12,43,11.60
2012,10,19,12,44,11.60
2012,10,19,12,45,11.60
2012,10,19,12,46,11.60
2012,10,19,12,47,11.60
2012,10,19,12,48,11.60
2012,10,19,12,49,11.50
2012,10,19,12,50,11.40
2012,10,19,12,51,11.40
2012,10,19,12,52,11.40
2012,10,19,12,53,11.40
2012,10,19,12,54,11.40
2012,10,19,12,55,11.40
2012,10,19,12,56,11.40
2012,10,19,12,57,11.30
2012,10,19,12,58,11.30
2012,10,19,12,59,11.30
2012,10,19,13,00,11.20
2012,10,19,13,01,11.20
2012,10,19,13,02,11.20
2012,10,19,13,03,11.20
2012,10,19,13,04,11.20
2012,10,19,13,05,11.10
2012,10,19,13,06,11.10
2012,10,19,13,07,11.10
2012,10,19,13,08,11.10
2012,10,19,13,09,11.10
2012,10,19,13,10,11.10
2012,10,19,13,11,11.10
2012,10,19,13,12,11.10
2012,10,19,13,13,11.10
2012,10,19,13,14,11.10
2012,10,19,13,15,11.00
2012,10,19,13,16,10.90
2012,10,19,13,17,10.90
2012,10,19,13,18,10.90
2012,10,19,13,19,10.90
2012,10,19,13,20,10.90
2012,10,19,13,21,10.90
2012,10,19,13,22,10.90
2012,10,19,13,23,11.00
2012,10,19,13,24,11.00
2012,10,19,13,25,11.10
2012,10,19,13,26,11.10
2012,10,19,13,27,11.10
2012,10,19,13,28,11.10
2012,10,19,13,29,11.10
2012,10,19,13,30,11.10
2012,10,19,13,31,11.10
2012,10,19,13,32,11.10
2012,10,19,13,33,11.20
2012,10,19,13,34,11.20
2012,10,19,13,35,11.20
2012,10,19,13,36,11.20
2012,10,19,13,37,11.20
2012,10,19,13,38,11.20
2012,10,19,13,39,11.30
2012,10,19,13,40,11.30
2012,10,19,13,41,11.30
2012,10,19,13,42,11.30
2012,10,19,13,43,11.30
2012,10,19,13,44,11.30
2012,10,19,13,45,11.30
2012,10,19,13,46,11.30
2012,10,19,13,47,11.30
2012,10,19,13,48,11.30
2012,10,19,13,49,11.30
2012,10,19,13,50,11.30
2012,10,19,13,51,11.30
2012,10,19,13,52,11.30
2012,10,19,13,53,11.30
2012,10,19,13,54,11.30
2012,10,19,13,55,11.40
2012,10,19,13,56,11.40
2012,10,19,13,57,11.40
2012,10,19,13,58,11.40
2012,10,19,13,59,11.40
2012,10,19,14,00,11.40
2012,10,19,14,01,11.40
2012,10,19,14,02,11.40
2012,10,19,14,03,11.40
2012,10,19,14,04,11.40
2012,10,19,14,05,11.40
2012,10,19,14,06,11.40
2012,10,19,14,07,11.40
2012,10,19,14,08,11.40
2012,10,19,14,09,11.40
2012,10,19,14,10,11.40
2012,10,19,14,11,11.40
2012,10,19,14,12,11.40
2012,10,19,14,13,11.40
2012,10,19,14,14,11.40
2012,10,19,14,15,11.40
2012,10,19,14,16,11.40
2012,10,19,14,17,11.40
2012,10,19,14,18,11.40
2012,10,19,14,19,11.40
2012,10,19,14,20,11.40
2012,10,19,14,21,11.40
2012,10,19,14,22,11.40
2012,10,19,14,23,11.40
2012,10,19,14,24,11.40
2012,10,19,14,25,11.40
2012,10,19,14,26,11.40
2012,10,19,14,27,11.40
2012,10,19,14,28,11.40
2012,10,19,14,29,11.40
2012,10,19,14,30,11.40
2012,10,19,14,31,11.50
2012,10,19,14,32,11.60
2012,10,19,14,33,11.60
2012,10,19,14,34,11.60
2012,10,19,14,35,11.60
2012,10,19,14,36,11.60
2012,10,19,14,37,11.60
2012,10,19,14,38,11.60
2012,10,19,14,39,11.60
2012,10,19,14,40,11.60
2012,10,19,14,41,11.40
2012,10,19,14,42,11.40
2012,10,19,14,43,11.40
2012,10,19,14,44,11.40
2012,10,19,14,45,11.40
2012,10,19,14,46,11.40
2012,10,19,14,47,11.30
2012,10,19,14,48,11.30
2012,10,19,14,49,11.30
2012,10,19,14,50,11.30
2012,10,19,14,51,11.40
2012,10,19,14,52,11.40
2012,10,19,14,53,11.40
2012,10,19,14,54,11.40
2012,10,19,14,55,11.40
2012,10,19,14,56,11.40
2012,10,19,14,57,11.30
2012,10,19,14,58,11.30
2012,10,19,14,59,11.30
2012,10,19,15,00,11.30
2012,10,19,15,01,11.30
2012,10,19,15,02,11.40
2012,10,19,15,03,11.30
2012,10,19,15,04,11.40
2012,10,19,15,05,11.40
2012,10,19,15,06,11.40
2012,10,19,15,07,11.40
2012,10,19,15,08,11.40
2012,10,19,15,09,11.40
2012,10,19,15,10,11.40
2012,10,19,15,11,11.40
2012,10,19,15,12,11.40
2012,10,19,15,13,11.40
2012,10,19,15,14,11.40
2012,10,19,15,15,11.50
2012,10,19,15,16,11.60
2012,10,19,15,17,11.60
2012,10,19,15,18,11.60
2012,10,19,15,19,11.60
2012,10,19,15,20,11.60
2012,10,19,15,21,11.60
2012,10,19,15,22,11.70
2012,10,19,15,23,11.70
2012,10,19,15,24,11.80
2012,10,19,15,25,11.80
2012,10,19,15,26,11.90
2012,10,19,15,27,12.00
2012,10,19,15,28,12.10
2012,10,19,15,29,12.20
2012,10,19,15,30,12.30
2012,10,19,15,31,12.30
2012,10,19,15,32,12.40
2012,10,19,15,33,12.50
2012,10,19,15,34,12.60
2012,10,19,15,35,12.60
2012,10,19,15,36,12.70
2012,10,19,15,37,12.70
2012,10,19,15,38,12.80
2012,10,19,15,39,12.80
2012,10,19,15,40,12.90
2012,10,19,15,41,12.90
2012,10,19,15,42,13.00
2012,10,19,15,43,12.90
2012,10,19,15,44,12.90
2012,10,19,15,45,12.90
2012,10,19,15,46,13.00
2012,10,19,15,47,13.00
2012,10,19,15,48,13.00
2012,10,19,15,49,13.00
2012,10,19,15,50,12.90
2012,10,19,15,51,12.80
2012,10,19,15,52,12.80
2012,10,19,15,53,12.80
2012,10,19,15,54,12.80
2012,10,19,15,55,12.70
2012,10,19,15,56,12.70
2012,10,19,15,57,12.70
2012,10,19,15,58,12.60
2012,10,19,15,59,12.50
2012,10,19,16,00,12.50
2012,10,19,16,01,12.40
2012,10,19,16,02,12.30
2012,10,19,16,03,12.30
2012,10,19,16,04,12.20
2012,10,19,16,05,12.20
2012,10,19,16,06,12.10
2012,10,19,16,07,12.10
2012,10,19,16,08,12.10
2012,10,19,16,09,12.10
2012,10,19,16,10,12.10
2012,10,19,16,11,12.20
2012,10,19,16,12,12.20
2012,10,19,16,13,12.20
2012,10,19,16,14,12.30
2012,10,19,16,15,12.30
2012,10,19,16,16,12.30
2012,10,19,16,17,12.30
2012,10,19,16,18,12.30
2012,10,19,16,19,12.30
2012,10,19,16,20,12.30
2012,10,19,16,21,12.30
2012,10,19,16,22,12.30
2012,10,19,16,23,12.30
2012,10,19,16,24,12.30
2012,10,19,16,25,12.30
2012,10,19,16,26,12.30
2012,10,19,16,27,12.30
2012,10,19,16,28,12.30
2012,10,19,16,29,12.30
2012,10,19,16,30,12.30
2012,10,19,16,31,12.40
2012,10,19,16,32,12.40
2012,10,19,16,33,12.30
2012,10,19,16,34,12.30
2012,10,19,16,35,12.30
2012,10,19,16,36,12.30
2012,10,19,16,37,12.30
2012,10,19,16,38,12.30
2012,10,19,16,39,12.30
2012,10,19,16,40,12.30
2012,10,19,16,41,12.30
2012,10,19,16,42,12.30
2012,10,19,16,43,12.30
2012,10,19,16,44,12.30
2012,10,19,16,45,12.30
2012,10,19,16,46,12.30
2012,10,19,16,47,12.30
2012,10,19,16,48,12.30
2012,10,19,16,49,12.30
2012,10,19,16,50,12.40
2012,10,19,16,51,12.40
2012,10,19,16,52,12.40
2012,10,19,16,53,12.40
2012,10,19,16,54,12.40
2012,10,19,16,55,12.40
2012,10,19,16,56,12.40
2012,10,19,16,57,12.40
2012,10,19,16,58,12.30
2012,10,19,16,59,12.30
2012,10,19,17,00,12.30
2012,10,19,17,01,12.30
2012,10,19,17,02,12.30
2012,10,19,17,03,12.20
2012,10,19,17,04,12.20
2012,10,19,17,05,12.20
2012,10,19,17,06,12.20
2012,10,19,17,07,12.20
2012,10,19,17,08,12.20
2012,10,19,17,09,12.20
2012,10,19,17,10,12.20
2012,10,19,17,11,12.10
2012,10,19,17,12,12.10
2012,10,19,17,13,12.10
2012,10,19,17,14,12.10
2012,10,19,17,15,12.00
2012,10,19,17,16,12.00
2012,10,19,17,17,12.00
2012,10,19,17,18,12.00
2012,10,19,17,19,11.90
2012,10,19,17,20,11.90
2012,10,19,17,21,11.90
2012,10,19,17,22,11.80
2012,10,19,17,23,11.80
2012,10,19,17,24,11.70
2012,10,19,17,25,11.70
2012,10,19,17,26,11.70
2012,10,19,17,27,11.60
2012,10,19,17,28,11.60
2012,10,19,17,29,11.60
2012,10,19,17,30,11.60
2012,10,19,17,31,11.60
2012,10,19,17,32,11.60
2012,10,19,17,33,11.40
2012,10,19,17,34,11.40
2012,10,19,17,35,11.40
2012,10,19,17,36,11.40
2012,10,19,17,37,11.40
2012,10,19,17,38,11.40
2012,10,19,17,39,11.30
2012,10,19,17,40,11.30
2012,10,19,17,41,11.30
2012,10,19,17,42,11.20
2012,10,19,17,43,11.20
2012,10,19,17,44,11.10
2012,10,19,17,45,11.10
2012,10,19,17,46,11.10
2012,10,19,17,47,11.10
2012,10,19,17,48,11.10
2012,10,19,17,49,11.10
2012,10,19,17,50,11.10
2012,10,19,17,51,11.00
2012,10,19,17,52,10.90
2012,10,19,17,53,10.90
2012,10,19,17,54,10.80
2012,10,19,17,55,10.80
2012,10,19,17,56,10.80
2012,10,19,17,57,10.70
2012,10,19,17,58,10.70
2012,10,19,17,59,10.60
2012,10,19,18,00,10.60
2012,10,19,18,01,10.60
2012,10,19,18,02,10.60
2012,10,19,18,03,10.60
2012,10,19,18,04,10.40
2012,10,19,18,05,10.40
2012,10,19,18,06,10.40
2012,10,19,18,07,10.40
2012,10,19,18,08,10.40
2012,10,19,18,09,10.40
2012,10,19,18,10,10.40
2012,10,19,18,11,10.30
2012,10,19,18,12,10.30
2012,10,19,18,13,10.30
2012,10,19,18,14,10.20
2012,10,19,18,15,10.20
2012,10,19,18,16,10.20
2012,10,19,18,17,10.20
2012,10,19,18,18,10.10
2012,10,19,18,19,10.10
2012,10,19,18,20,10.10
2012,10,19,18,21,10.10
2012,10,19,18,22,10.10
2012,10,19,18,23,10.10
2012,10,19,18,24,10.10
2012,10,19,18,25,10.10
2012,10,19,18,26,10.10
2012,10,19,18,27,10.10
2012,10,19,18,28,10.10
2012,10,19,18,29,10.10
2012,10,19,18,30,10.10
2012,10,19,18,31,10.10
2012,10,19,18,32,10.10
2012,10,19,18,33,10.10
2012,10,19,18,34,10.10
2012,10,19,18,35,10.10
2012,10,19,18,36,10.10
2012,10,19,18,37,10.10
2012,10,19,18,38,10.10
2012,10,19,18,39,10.10
2012,10,19,18,40,10.10
2012,10,19,18,41,10.10
2012,10,19,18,42,10.10
2012,10,19,18,43,10.10
2012,10,19,18,44,10.10
2012,10,19,18,45,10.10
2012,10,19,18,46,10.10
2012,10,19,18,47,10.10
2012,10,19,18,48,10.10
2012,10,19,18,49,10.10
2012,10,19,18,50,10.10
2012,10,19,18,51,10.10
2012,10,19,18,52,10.10
2012,10,19,18,53,10.10
2012,10,19,18,54,10.10
2012,10,19,18,55,10.10
2012,10,19,18,56,10.10
2012,10,19,18,57,10.10
2012,10,19,18,58,10.10
2012,10,19,18,59,10.10
2012,10,19,19,00,10.10
2012,10,19,19,01,10.10
2012,10,19,19,02,10.10
2012,10,19,19,03,10.10
2012,10,19,19,04,10.10
2012,10,19,19,05,10.10
2012,10,19,19,06,10.10
2012,10,19,19,07,10.10
2012,10,19,19,08,10.10
2012,10,19,19,09,10.10
2012,10,19,19,10,10.10
2012,10,19,19,11,10.10
2012,10,19,19,12,10.10
2012,10,19,19,13,10.10
2012,10,19,19,14,10.10
2012,10,19,19,15,10.10
2012,10,19,19,16,10.10
2012,10,19,19,17,10.10
2012,10,19,19,18,10.10
2012,10,19,19,19,10.10
2012,10,19,19,20,10.10
2012,10,19,19,21,10.10
2012,10,19,19,22,10.00
2012,10,19,19,23,9.90
2012,10,19,19,24,9.90
2012,10,19,19,25,9.90
2012,10,19,19,26,9.90
2012,10,19,19,27,9.90
2012,10,19,19,28,9.90
2012,10,19,19,29,9.90
2012,10,19,19,30,9.90
2012,10,19,19,31,9.90
2012,10,19,19,32,9.90
2012,10,19,19,33,9.90
2012,10,19,19,34,9.90
2012,10,19,19,35,9.90
2012,10,19,19,36,9.90
2012,10,19,19,37,9.90
2012,10,19,19,38,9.90
2012,10,19,19,39,9.90
2012,10,19,19,40,9.90
2012,10,19,19,41,9.90
2012,10,19,19,42,9.90
2012,10,19,19,43,9.90
2012,10,19,19,44,9.90
2012,10,19,19,45,9.90
2012,10,19,19,46,9.90
2012,10,19,19,47,9.90
2012,10,19,19,48,9.90
2012,10,19,19,49,9.90
2012,10,19,19,50,9.90
2012,10,19,19,51,9.90
2012,10,19,19,52,9.90
2012,10,19,19,53,9.90
2012,10,19,19,54,9.90
2012,10,19,19,55,9.90
2012,10,19,19,56,9.80
2012,10,19,19,57,9.80
2012,10,19,19,58,9.80
2012,10,19,19,59,9.80
2012,10,19,20,00,9.80
2012,10,19,20,01,9.80
2012,10,19,20,02,9.70
2012,10,19,20,03,9.70
2012,10,19,20,04,9.70
2012,10,19,20,05,9.70
2012,10,19,20,06,9.70
2012,10,19,20,07,9.70
2012,10,19,20,08,9.70
2012,10,19,20,09,9.70
2012,10,19,20,10,9.70
2012,10,19,20,11,9.60
2012,10,19,20,12,9.50
2012,10,19,20,13,9.50
2012,10,19,20,14,9.40
2012,10,19,20,15,9.40
2012,10,19,20,16,9.30
2012,10,19,20,17,9.20
2012,10,19,20,18,9.20
2012,10,19,20,19,9.10
2012,10,19,20,20,9.00
2012,10,19,20,21,9.00
2012,10,19,20,22,8.90
2012,10,19,20,23,8.90
2012,10,19,20,24,8.70
2012,10,19,20,25,8.70
2012,10,19,20,26,8.60
2012,10,19,20,27,8.50
2012,10,19,20,28,8.50
2012,10,19,20,29,8.40
2012,10,19,20,30,8.40
2012,10,19,20,31,8.30
2012,10,19,20,32,8.30
2012,10,19,20,33,8.20
2012,10,19,20,34,8.20
2012,10,19,20,35,8.20
2012,10,19,20,36,8.20
2012,10,19,20,37,8.20
2012,10,19,20,38,8.10
2012,10,19,20,39,8.10
2012,10,19,20,40,8.10
2012,10,19,20,41,8.00
2012,10,19,20,42,8.00
2012,10,19,20,43,8.00
2012,10,19,20,44,8.00
2012,10,19,20,45,8.00
2012,10,19,20,46,7.90
2012,10,19,20,47,7.90
2012,10,19,20,48,7.90
2012,10,19,20,49,7.80
2012,10,19,20,50,7.80
2012,10,19,20,51,7.80
2012,10,19,20,52,7.80
2012,10,19,20,53,7.80
2012,10,19,20,54,7.80
2012,10,19,20,55,7.70
2012,10,19,20,56,7.70
2012,10,19,20,57,7.70
2012,10,19,20,58,7.60
2012,10,19,20,59,7.60
2012,10,19,21,00,7.60
2012,10,19,21,01,7.60
2012,10,19,21,02,7.60
2012,10,19,21,03,7.60
2012,10,19,21,04,7.60
2012,10,19,21,05,7.50
2012,10,19,21,06,7.50
2012,10,19,21,07,7.40
2012,10,19,21,08,7.40
2012,10,19,21,09,7.40
2012,10,19,21,10,7.40
2012,10,19,21,11,7.40
2012,10,19,21,12,7.30
2012,10,19,21,13,7.30
2012,10,19,21,14,7.30
2012,10,19,21,15,7.30
2012,10,19,21,16,7.30
2012,10,19,21,17,7.30
2012,10,19,21,18,7.30
2012,10,19,21,19,7.30
2012,10,19,21,20,7.30
2012,10,19,21,21,7.30
2012,10,19,21,22,7.30
2012,10,19,21,23,7.30
2012,10,19,21,24,7.30
2012,10,19,21,25,7.30
2012,10,19,21,26,7.30
2012,10,19,21,27,7.30
2012,10,19,21,28,7.30
2012,10,19,21,29,7.30
2012,10,19,21,30,7.30
2012,10,19,21,31,7.30
2012,10,19,21,32,7.30
2012,10,19,21,33,7.30
2012,10,19,21,34,7.20
2012,10,19,21,35,7.20
2012,10,19,21,36,7.20
2012,10,19,21,37,7.20
2012,10,19,21,38,7.20
2012,10,19,21,39,7.20
2012,10,19,21,40,7.20
2012,10,19,21,41,7.20
2012,10,19,21,42,7.20
2012,10,19,21,43,7.20
2012,10,19,21,44,7.20
2012,10,19,21,45,7.20
2012,10,19,21,46,7.20
2012,10,19,21,47,7.20
2012,10,19,21,48,7.20
2012,10,19,21,49,7.20
2012,10,19,21,50,7.20
2012,10,19,21,51,7.20
2012,10,19,21,52,7.20
2012,10,19,21,53,7.10
2012,10,19,21,54,7.10
2012,10,19,21,55,7.10
2012,10,19,21,56,7.10
2012,10,19,21,57,7.10
2012,10,19,21,58,7.10
2012,10,19,21,59,7.10
2012,10,19,22,00,7.10
2012,10,19,22,01,7.10
2012,10,19,22,02,7.10
2012,10,19,22,03,7.10
2012,10,19,22,04,7.10
2012,10,19,22,05,7.20
2012,10,19,22,06,7.20
2012,10,19,22,07,7.20
2012,10,19,22,08,7.20
2012,10,19,22,09,7.10
2012,10,19,22,10,7.10
2012,10,19,22,11,7.10
2012,10,19,22,12,7.10
2012,10,19,22,13,7.10
2012,10,19,22,14,7.10
2012,10,19,22,15,7.10
2012,10,19,22,16,7.20
2012,10,19,22,17,7.20
2012,10,19,22,18,7.20
2012,10,19,22,19,7.20
2012,10,19,22,20,7.20
2012,10,19,22,21,7.20
2012,10,19,22,22,7.20
2012,10,19,22,23,7.20
2012,10,19,22,24,7.20
2012,10,19,22,25,7.20
2012,10,19,22,26,7.20
2012,10,19,22,27,7.20
2012,10,19,22,28,7.30
2012,10,19,22,29,7.30
2012,10,19,22,30,7.30
2012,10,19,22,31,7.30
2012,10,19,22,32,7.30
2012,10,19,22,33,7.30
2012,10,19,22,34,7.30
2012,10,19,22,35,7.30
2012,10,19,22,36,7.30
2012,10,19,22,37,7.30
2012,10,19,22,38,7.30
2012,10,19,22,39,7.30
2012,10,19,22,40,7.30
2012,10,19,22,41,7.30
2012,10,19,22,42,7.30
2012,10,19,22,43,7.30
2012,10,19,22,44,7.30
2012,10,19,22,45,7.30
2012,10,19,22,46,7.30
2012,10,19,22,47,7.30
2012,10,19,22,48,7.30
2012,10,19,22,49,7.30
2012,10,19,22,50,7.30
2012,10,19,22,51,7.30
2012,10,19,22,52,7.30
2012,10,19,22,53,7.30
2012,10,19,22,54,7.30
2012,10,19,22,55,7.30
2012,10,19,22,56,7.30
2012,10,19,22,57,7.30
2012,10,19,22,58,7.30
2012,10,19,22,59,7.30
2012,10,19,23,00,7.30
2012,10,19,23,01,7.30
2012,10,19,23,02,7.30
2012,10,19,23,03,7.30
2012,10,19,23,04,7.30
2012,10,19,23,05,7.30
2012,10,19,23,06,7.30
2012,10,19,23,07,7.30
2012,10,19,23,08,7.30
2012,10,19,23,09,7.30
2012,10,19,23,10,7.30
2012,10,19,23,11,7.30
2012,10,19,23,12,7.40
2012,10,19,23,13,7.40
2012,10,19,23,14,7.40
2012,10,19,23,15,7.40
2012,10,19,23,16,7.40
2012,10,19,23,17,7.40
2012,10,19,23,18,7.50
2012,10,19,23,19,7.50
2012,10,19,23,20,7.50
2012,10,19,23,21,7.50
2012,10,19,23,22,7.50
2012,10,19,23,23,7.60
2012,10,19,23,24,7.60
2012,10,19,23,25,7.60
2012,10,19,23,26,7.60
2012,10,19,23,27,7.60
2012,10,19,23,28,7.60
2012,10,19,23,29,7.60
2012,10,19,23,30,7.70
2012,10,19,23,31,7.70
2012,10,19,23,32,7.70
2012,10,19,23,33,7.70
2012,10,19,23,34,7.70
2012,10,19,23,35,7.70
2012,10,19,23,36,7.70
2012,10,19,23,37,7.70
2012,10,19,23,38,7.70
2012,10,19,23,39,7.70
2012,10,19,23,40,7.70
2012,10,19,23,41,7.70
2012,10,19,23,42,7.70
2012,10,19,23,43,7.70
2012,10,19,23,44,7.70
2012,10,19,23,45,7.70
2012,10,19,23,46,7.60
2012,10,19,23,47,7.60
2012,10,19,23,48,7.60
2012,10,19,23,49,7.60
2012,10,19,23,50,7.60
2012,10,19,23,51,7.60
2012,10,19,23,52,7.60
2012,10,19,23,53,7.60
2012,10,19,23,54,7.50
2012,10,19,23,55,7.50
2012,10,19,23,56,7.50
2012,10,19,23,57,7.50
2012,10,19,23,58,7.50
2012,10,19,23,59,7.50
